LUCH (OLYMP-K 1) (40258 NORAD) Tracking and Keplerian Element Data

This shows tracking and keplerian element data for the satellite.

Feedback or suggestion? Click here.




ElementValue
Catalog40258
NameLUCH (OLYMP-K 1)
Epoch Orbit3210
Epoch Day12.86565449
Epoch Year2024
RAAN110.2838
Inclination0.0381
Eccentricity8.19E-05
Argument of Perigee191.0257
Mean Anonmoly104.0841
Mean Motion1.00269681
Decay Rate-1.32E-06
L11 40258U 14058A 24012.86565449 -.00000132 00000+0 00000+0 0 9998
L22 40258 0.0381 110.2838 0000819 191.0257 104.0841 1.00269681 32106



Live tracking and technical data element details for LUCH (OLYMP-K 1) (NORAD 40258). LUCH (OLYMP-K 1) can be tracked NOW for your location showing map with azimuth and elevation plus other details from your city location.







IsCatalogInMostPopularTable: catalog: 40258, numindb: 839
Update: records affected: 1



GetName: 40258 LUCH (OLYMP-K 1)

Hit Count: updated at: Fri, 19 Apr 2024 12:51:40 GMT